Volver al catálogo

AIRSAT-01

ActivoCienciaSSO
NORAD 61238·PAYLOAD·🇨🇳 China
Este nombre de satélite aún no ha sido confirmado por fuentes oficiales.

Lanzado Sep 24, 2024 desde Jiuquan Satellite Launch Center

Loading…

Próximos Pases (próximas 24 horas)

TLE

ActualizadoSource: Space-Track

Época: Sep 14, 2026, 15:02 UTC

1 61238U 24174A   26257.62663795  .00003142  00000-0  14594-3 0  9990
2 61238  97.4494 264.2045 0003379  68.5823 291.5772 15.20731716109260

Sigue AIRSAT-01 en tiempo real con AllMySat

Download on the App Store